USA 271

Last updated on Tue Apr 07 2026 00:02:57 GMT+0000 (Coordinated Universal Time)

1 41745U 16052B 26096.41137453 -.00000352 00000+0 00000+0 0 9995 2 41745 3.9865 78.1512 0007603 147.2620 241.9807 1.00249314 27202
UTC large
Height (km)
Speed (km/s)
/
Latitude / Longitude
Inclination (degrees)
Orbital Period (minutes)
Azimuth
Elevation
Range (km)
Doppler Factor

Next 0 passes for location: London (51.5072 / 0.1276)

Sorry there are no passes over London.
USA 271